Dewpoint
8 6 7 8 10 10 7 7 6 7 6 5 7 6 3 3 -0 -3 -3 -2 -2 -3 -2 -2 -3 -1 -1 -1 -1 -1 -1 -1
8 7 9 10 10 9 7 6 6 8 4 5 5 4 3 2 -3 -3 -3 -2 -3 -2 -1 -1 -0 0 1 0 -1 -2 -2 -1
10 10 10 10 9 9 9 8 9 6 5 4 4 4 1 -4 -2 -2 -2 -2 -2 -2 -1 -0 0 -0 -0 1 -1 -3 -5 -3
10 11 11 11 10 10 9 8 5 4 2 -0 -2 -2 -1 0 0 -1 -1 -2 -2 -2 -1 -1 -0 -1 -1 -1 -2 -2 -4 -5
10 10 11 10 10 9 6 4 2 -2 -2 -0 -0 1 1 -1 -1 -0 -0 -1 -3 -3 -1 -3 -3 -3 -3 -2 -3 -3 -4 -7
8 7 7 6 3 2 1 -1 -1 -2 -1 -0 0 -0 -0 -0 -0 -1 -1 -2 -2 -3 -3 -2 -3 -4 -2 -1 -1 -4 -5 -5
3 3 2 1 2 -1 -1 -1 -1 -0 0 -0 -1 -3 -4 -5 -8 -9 -11 -13 -13 -12 -10 -4 -2 -2 -0 -1 -3 -3 -4 -6
0 0 0 1 2 0 0 0 0 0 1 -2 -5 -7 -9 -11 -14 -13 -15 -13 -13 -12 -13 -6 -2 -1 -1 -2 -3 -4 -5 -7
1 1 1 2 2 1 0 1 1 -1 -4 -5 -7 -11 -13 -12 -14 -15 -10 -10 -9 -7 -6 -3 -1 -1 -2 -2 -2 -4 -6 -8
2 2 2 2 1 1 1 -1 -3 -4 -5 -4 -11 -13 -12 -13 -12 -11 -11 -10 -8 -5 -3 -1 -1 -2 -2 -2 -5 -6 -7 -8
3 2 2 1 2 1 -1 -3 -5 -1 -2 -10 -12 -11 -10 -12 -14 -18 -17 -14 -8 -5 -3 -1 -2 -2 -3 -5 -7 -8 -9 -10
3 2 2 2 1 -1 -2 -4 -2 -4 -9 -12 -11 -10 -11 -12 -11 -14 -17 -19 -7 -6 -4 -3 -3 -5 -6 -5 -8 -9 -10 -10
3 2 3 2 -1 -3 -5 -4 -6 -8 -10 -11 -11 -10 -11 -10 -8 -8 -9 -8 -7 -5 -4 -4 -4 -5 -5 -8 -9 -9 -10 -10
2 1 1 -1 -3 -6 -4 -5 -6 -10 -11 -11 -11 -10 -10 -6 -7 -7 -7 -6 -5 -4 -4 -4 -5 -6 -8 -9 -9 -8 -9 -9
1 -0 -2 -3 -5 -4 -5 -6 -10 -11 -11 -11 -9 -10 -8 -6 -6 -7 -7 -6 -5 -4 -5 -4 -5 -7 -9 -8 -8 -8 -8 -8
-0 -2 -3 -5 -6 -4 -5 -9 -10 -11 -11 -10 -8 -9 -8 -6 -6 -7 -7 -5 -4 -4 -5 -6 -7 -8 -8 -9 -8 -7 -8 -9
-1 -2 -3 -4 -6 -5 -7 -10 -11 -11 -11 -10 -9 -9 -8 -6 -7 -7 -6 -6 -5 -5 -5 -5 -6 -7 -7 -8 -10 -9 -10 -11
-0 -1 -3 -5 -7 -7 -8 -10 -11 -11 -11 -11 -12 -12 -8 -7 -7 -7 -7 -7 -6 -6 -6 -5 -5 -5 -10 -10 -10 -11 -10 -12
-0 -1 -2 -5 -7 -7 -9 -11 -12 -12 -11 -11 -12 -8 -8 -8 -8 -7 -7 -7 -7 -7 -8 -6 -6 -8 -10 -10 -11 -10 -12 -13
Wind_Speed
13 13 15 17 18 17 15 10 4 8 10 7 4 1 2 4 4 3 4 7 9 11 13 16 14 9 10 11 15 15 16 16
13 15 15 18 19 17 12 8 6 5 6 6 5 2 5 8 5 6 9 11 12 13 9 11 12 12 14 16 16 18 20 18
13 14 16 18 17 15 13 10 8 9 7 5 4 4 5 5 8 11 13 15 14 12 15 14 14 16 17 16 16 18 18 16
16 17 18 18 18 16 14 14 13 10 9 5 5 3 4 3 5 6 11 15 16 17 17 18 19 18 18 16 14 13 13 14
19 20 19 18 17 16 17 16 13 13 11 8 6 1 2 7 8 8 11 16 21 23 20 24 23 20 18 14 12 12 10 15
19 19 20 19 21 19 19 19 17 14 10 4 2 1 4 6 8 13 15 17 18 19 21 20 20 19 16 12 10 8 11 14
20 19 19 18 17 21 20 17 15 11 6 4 3 8 10 10 13 15 16 18 19 19 19 20 19 16 13 9 7 10 13 15
22 21 20 18 18 19 16 14 11 8 3 3 8 11 11 10 14 14 19 18 19 19 20 18 14 13 9 8 8 18 11 12
21 21 19 18 19 17 16 13 8 4 1 5 8 8 10 11 16 19 16 17 18 20 18 12 8 7 7 11 13 13 12 11
22 20 19 19 19 18 15 12 6 3 3 8 6 9 15 18 19 19 18 18 18 17 14 7 7 7 13 12 14 12 10 12
21 19 18 19 19 19 15 9 6 4 7 4 6 10 15 19 21 20 20 20 18 15 11 9 10 11 14 17 13 11 11 13
22 20 19 20 19 18 12 9 3 3 3 3 6 11 17 20 18 19 19 20 16 13 11 13 14 18 19 16 11 13 13 15
23 22 22 21 21 18 12 7 5 7 4 4 9 15 18 16 15 17 18 18 16 13 12 15 18 20 16 10 12 14 17 19
23 23 23 22 21 17 9 9 8 5 4 7 12 14 15 12 15 17 17 16 15 13 13 14 14 12 11 12 14 15 16 17
24 24 24 22 20 14 13 10 6 6 7 9 10 14 13 14 16 16 17 16 14 12 12 13 12 11 11 12 12 13 14 17
27 26 24 23 21 17 11 10 8 8 9 9 10 15 14 13 15 17 19 16 13 13 11 11 11 11 15 16 20 14 17 18
26 25 24 23 22 16 14 11 9 9 11 12 14 15 16 15 15 17 17 15 14 14 15 13 11 10 19 18 14 17 16 18
26 26 24 22 22 17 14 12 11 11 12 15 18 18 16 15 16 16 17 15 14 15 16 13 13 9 16 16 19 19 20 16
24 22 21 21 20 16 14 14 13 13 15 18 17 14 15 16 16 16 16 15 15 14 13 12 10 12 16 18 18 22 18 15
Wind_Direction
183 176 176 175 176 175 197 210 240 237 281 295 292 174 236 310 315 274 281 284 288 293 302 306 300 311 313 310 313 309 311 301
172 178 169 164 169 183 190 211 196 244 151 130 142 175 284 301 280 291 303 303 304 305 318 319 318 313 304 309 307 306 306 299
161 163 163 166 163 166 172 176 175 158 145 143 170 232 249 265 297 301 301 303 308 317 310 311 308 306 305 298 305 308 304 306
158 156 156 157 159 161 160 157 154 154 166 171 190 221 277 305 315 317 303 301 306 311 309 307 307 308 304 294 295 306 301 305
146 150 156 156 158 156 155 153 164 173 169 178 187 185 287 297 310 314 309 309 308 306 305 303 304 303 296 291 293 301 304 308
154 151 152 153 156 157 162 169 179 184 191 202 235 350 21 353 338 325 320 316 312 308 305 299 297 297 286 278 280 290 306 312
153 154 156 156 159 170 172 175 181 191 209 218 315 335 334 338 331 329 321 316 312 308 302 298 291 284 273 266 270 301 303 306
165 169 169 169 169 174 172 175 182 168 173 354 342 337 334 343 337 336 333 327 323 318 312 302 286 269 247 257 275 309 297 293
176 176 180 177 177 172 173 167 160 151 85 358 350 349 352 355 346 343 336 329 326 323 319 305 264 248 245 285 308 302 290 290
182 186 184 178 171 172 164 153 155 129 51 334 336 353 358 355 351 341 334 332 329 325 323 301 247 261 298 303 303 291 286 298
189 184 177 172 166 170 165 157 147 323 316 301 348 360 355 345 337 337 336 332 331 327 311 280 266 302 300 299 290 285 292 301
190 183 176 170 171 171 167 171 228 301 237 312 340 345 338 332 337 337 334 332 325 318 301 276 279 293 294 286 278 284 287 301
190 184 177 175 177 176 178 180 189 232 259 308 330 325 324 326 333 334 331 327 319 308 296 288 289 293 289 272 277 288 289 298
187 185 181 179 180 179 189 185 217 226 279 307 308 314 317 320 328 328 325 321 314 307 301 294 295 287 279 277 287 291 287 296
190 188 185 185 186 188 188 218 208 253 283 296 298 309 308 314 321 323 322 317 311 309 301 296 296 289 279 282 291 296 294 303
195 191 190 192 191 191 201 198 235 256 284 294 287 305 304 302 311 318 321 315 307 299 302 302 293 289 290 295 301 295 303 306
199 197 198 198 197 197 195 220 236 266 288 296 300 297 296 298 306 314 317 309 302 299 292 288 293 281 303 302 295 309 307 311
204 204 204 202 199 207 209 218 245 271 286 300 303 298 293 295 299 307 313 309 303 300 292 284 285 274 310 296 309 312 313 310
210 209 209 210 201 211 206 219 252 271 289 296 298 290 288 295 295 298 307 305 302 298 297 284 265 270 293 299 309 316 315 314
Height
1550 1553 1556 1559 1562 1564 1566 1569 1572 1573 1574 1574 1575 1576 1578 1578 1577 1576 1576 1576 1575 1574 1572 1569 1567 1566 1564 1562 1559 1558 1555 1552
1548 1550 1553 1558 1560 1562 1565 1568 1570 1573 1573 1574 1576 1577 1577 1577 1576 1575 1575 1574 1572 1571 1569 1566 1565 1564 1560 1558 1557 1555 1552 1548
1547 1549 1552 1556 1558 1563 1565 1567 1570 1572 1573 1573 1575 1576 1575 1575 1574 1574 1573 1571 1569 1568 1566 1564 1562 1561 1558 1555 1551 1549 1549 1545
1547 1550 1553 1556 1559 1562 1565 1568 1570 1571 1571 1572 1574 1575 1575 1575 1574 1573 1569 1568 1567 1565 1563 1561 1559 1556 1554 1551 1548 1545 1544 1543
1548 1550 1554 1557 1560 1563 1565 1567 1567 1569 1570 1570 1572 1573 1574 1572 1571 1571 1569 1566 1564 1562 1560 1557 1554 1552 1549 1547 1544 1541 1539 1538
1548 1551 1555 1557 1558 1561 1562 1564 1566 1568 1569 1570 1570 1571 1571 1571 1570 1568 1567 1565 1561 1559 1556 1552 1549 1546 1544 1542 1540 1538 1537 1534
1550 1553 1556 1558 1559 1560 1562 1563 1565 1566 1567 1568 1568 1568 1568 1567 1566 1565 1563 1560 1557 1553 1550 1546 1544 1542 1539 1537 1535 1535 1533 1531
1550 1552 1555 1557 1558 1560 1562 1563 1564 1565 1566 1566 1565 1565 1565 1565 1563 1560 1557 1554 1551 1548 1544 1541 1539 1538 1535 1533 1531 1529 1530 1529
1548 1551 1554 1556 1556 1559 1560 1562 1564 1564 1564 1563 1564 1565 1563 1562 1559 1556 1554 1551 1547 1543 1539 1537 1534 1533 1531 1528 1529 1528 1527 1525
1545 1549 1551 1552 1554 1556 1558 1560 1561 1562 1562 1562 1562 1561 1559 1557 1555 1553 1550 1547 1543 1539 1536 1534 1532 1530 1528 1527 1526 1525 1523 1522
1542 1545 1547 1550 1552 1554 1556 1558 1559 1559 1559 1559 1558 1556 1555 1554 1552 1549 1546 1542 1538 1536 1534 1532 1529 1528 1526 1525 1523 1522 1520 1519
1539 1542 1545 1547 1548 1551 1553 1555 1555 1554 1554 1556 1555 1553 1551 1550 1548 1544 1541 1537 1534 1532 1530 1528 1526 1525 1523 1520 1519 1518 1517 1515
1535 1538 1540 1542 1545 1547 1549 1550 1551 1551 1551 1551 1550 1549 1547 1545 1543 1539 1536 1533 1530 1527 1525 1524 1522 1520 1517 1516 1515 1514 1512 1511
1530 1533 1535 1538 1541 1543 1545 1546 1546 1547 1547 1547 1546 1544 1542 1540 1538 1534 1531 1528 1525 1523 1521 1519 1517 1515 1514 1513 1511 1510 1508 1506
1525 1529 1531 1534 1537 1538 1541 1541 1541 1543 1543 1543 1541 1539 1537 1535 1532 1530 1527 1523 1520 1519 1517 1514 1512 1511 1510 1509 1507 1506 1503 1501
1520 1523 1526 1529 1532 1534 1535 1536 1537 1538 1538 1538 1536 1534 1531 1530 1527 1525 1522 1519 1517 1515 1513 1510 1509 1507 1506 1504 1502 1501 1499 1495
1516 1518 1521 1524 1527 1529 1530 1531 1532 1533 1533 1532 1531 1529 1527 1525 1523 1520 1517 1515 1513 1511 1509 1507 1506 1503 1501 1499 1498 1496 1493 1490
1510 1512 1516 1519 1521 1523 1524 1526 1527 1527 1527 1527 1525 1523 1521 1520 1517 1516 1513 1511 1508 1507 1505 1503 1501 1499 1497 1495 1493 1491 1488 1484
1505 1509 1511 1513 1517 1518 1521 1521 1522 1522 1521 1520 1519 1517 1516 1514 1512 1510 1508 1506 1504 1503 1501 1499 1497 1494 1492 1491 1489 1486 1482 1479